FW2966 New Rochelle NY US current weather conditions

sailwx.info

Wind from 196

Air temperature 10.0° C
Dewpoint 9.5° C

Last reported at 2019-Dec-09 23:00 UTC.
Time now 2019-Dec-09 23:50 UTC

Location: N 40°55' W 073°46'.
View on Google Maps.

See reports from other nearby stations

  
Tides and Currents Weather Stations Pressure Air Temp Water Temp Dewpoint Dewpoint Depression Visibility Wind Speed Wind Dir Waves Ship Positions
date/time (UTC)wind fromknots sea level pressurealtimeterstation pressurevisibilityair tempwater tempwave heightnotes
2019-Dec-09 23:00 196 10.0
2019-Dec-09 22:45 211 10.0
2019-Dec-09 22:31 182 10.6
2019-Dec-09 22:16 232 0 gusting 5 10.0
2019-Dec-09 22:01 277 10.0
2019-Dec-09 21:46 277 10.0
2019-Dec-09 21:33 277 9.4
2019-Dec-09 21:16 190 9.4
2019-Dec-09 21:01 215 9.4
2019-Dec-09 20:46 220 10.0
2019-Dec-09 20:31 186 10.6
2019-Dec-09 20:15 238 10.6
2019-Dec-09 20:01 267 10.6
2019-Dec-09 19:45 240 10.6
2019-Dec-09 19:30 240 10.6
2019-Dec-09 19:15 262 10.6
2019-Dec-09 19:00 288 10.6
2019-Dec-09 18:45 232 2 gusting 6 11.1
2019-Dec-09 18:30 261 1 gusting 6 11.1
2019-Dec-09 18:15 236 1 gusting 6 11.1
2019-Dec-09 18:01 220 0 gusting 3 10.6
2019-Dec-09 17:45 211 0 gusting 2 10.6
2019-Dec-09 17:30 209 1 gusting 4 10.0
2019-Dec-09 17:15 196 3 gusting 6 10.0
2019-Dec-09 17:00 213 0 gusting 4 10.6
2019-Dec-09 16:45 194 1 gusting 4 11.1
2019-Dec-09 16:30 241 0 gusting 4 11.1
2019-Dec-09 16:15 229 1 gusting 8 11.1
2019-Dec-09 16:00 267 3 gusting 10 11.1
2019-Dec-09 15:45 236 1 gusting 11 11.1
2019-Dec-09 15:32 238 10.0
2019-Dec-09 15:16 228 8.9
2019-Dec-09 15:02 158 7.8
2019-Dec-09 14:47 338 6.7
2019-Dec-09 14:31 061 0 gusting 2 6.1
2019-Dec-09 14:16 055 5.6
2019-Dec-09 14:02 067 0 gusting 2 5.6
2019-Dec-09 13:46 074 5.0
2019-Dec-09 13:31 298 5.0
2019-Dec-09 13:16 067 5.0
2019-Dec-09 13:00 355 5.0
2019-Dec-09 12:46 342 5.0
2019-Dec-09 12:31 116 5.0
2019-Dec-09 12:16 101 5.0
2019-Dec-09 12:01 080 4.4
2019-Dec-09 11:45 112 4.4
2019-Dec-09 11:30 123 4.4
2019-Dec-09 11:16 095 4.4
2019-Dec-09 11:00 095 3.9
2019-Dec-09 10:45 095 3.9
2019-Dec-09 10:30 095 3.9
2019-Dec-09 10:15 095 3.9
2019-Dec-09 10:00 095 3.9
2019-Dec-09 09:45 095 3.3
2019-Dec-09 09:30 095 3.9
2019-Dec-09 09:16 095 3.3
2019-Dec-09 09:02 311 3.3
2019-Dec-09 08:46 311 3.3
2019-Dec-09 08:31 311 3.3
2019-Dec-09 08:17 355 3.3
2019-Dec-09 08:01 355 3.3
2019-Dec-09 07:46 355 3.3
2019-Dec-09 07:32 355 2.8
2019-Dec-09 07:17 351 2.8
2019-Dec-09 07:01 355 2.8
2019-Dec-09 06:46 355 2.8
2019-Dec-09 06:31 355 2.8
2019-Dec-09 06:16 355 3.3
2019-Dec-09 06:01 355 3.3
2019-Dec-09 05:46 355 3.3
2019-Dec-09 05:30 355 3.3
2019-Dec-09 05:16 355 3.3
2019-Dec-09 05:00 355 2.8
2019-Dec-09 04:45 355 2.8
2019-Dec-09 04:31 355 3.3
2019-Dec-09 04:15 201 3.3
2019-Dec-09 04:00 201 3.9
2019-Dec-09 03:46 201 3.9
2019-Dec-09 03:30 201 3.9
2019-Dec-09 03:15 201 0 gusting 1 3.9
2019-Dec-09 03:00 284 3.9
2019-Dec-09 02:45 283 3.9
2019-Dec-09 02:30 283 3.9
2019-Dec-09 02:15 284 3.9
2019-Dec-09 02:01 283 0 gusting 2 3.9
2019-Dec-09 01:45 240 3.9
2019-Dec-09 01:30 240 3.9
2019-Dec-09 01:15 240 3.9
2019-Dec-09 01:00 239 0 gusting 2 3.9
2019-Dec-09 00:45 239 0 gusting 2 3.9
2019-Dec-09 00:15 261 1 gusting 3 3.9
2019-Dec-09 00:02 241 0 gusting 3 3.9
2019-Dec-08 23:47 254 0 gusting 5 3.9
2019-Dec-08 23:33 251 1 gusting 6 3.9
2019-Dec-08 23:17 288 2 gusting 6 4.4
2019-Dec-08 23:01 238 1 gusting 6 4.4
2019-Dec-08 22:46 237 2 gusting 6 4.4
2019-Dec-08 22:31 238 1 gusting 5 4.4
2019-Dec-08 22:16 197 2 gusting 6 4.4
2019-Dec-08 22:02 195 2 gusting 5 4.4
2019-Dec-08 21:47 225 2 gusting 7 4.4
2019-Dec-08 21:32 199 1 gusting 7 4.4
2019-Dec-08 21:16 175 3 gusting 6 3.9
2019-Dec-08 21:01 222 3 gusting 9 4.4
2019-Dec-08 20:46 239 4 gusting 8 4.4
2019-Dec-08 20:31 221 3 gusting 8 4.4
2019-Dec-08 20:16 185 2 gusting 7 4.4
2019-Dec-08 20:01 209 4 gusting 10 3.9
2019-Dec-08 19:46 229 4 gusting 11 3.9
2019-Dec-08 19:30 227 4 gusting 10 4.4
2019-Dec-08 19:16 198 3 gusting 6 3.9
2019-Dec-08 19:00 213 3 gusting 6 3.9
2019-Dec-08 18:46 171 3 gusting 6 3.9
2019-Dec-08 18:31 167 3 gusting 6 3.9
2019-Dec-08 18:16 185 3 gusting 10 3.9
2019-Dec-08 18:00 205 1 gusting 6 3.9
2019-Dec-08 17:46 173 4 gusting 9 3.3
2019-Dec-08 17:30 204 2 gusting 5 2.8
2019-Dec-08 17:15 240 1 gusting 6 2.8
2019-Dec-08 17:00 162 1 gusting 6 2.2
2019-Dec-08 16:45 165 2 gusting 5 2.2
2019-Dec-08 16:30 169 2 gusting 5 1.7
2019-Dec-08 16:15 181 1 gusting 3 1.1
2019-Dec-08 16:00 173 1 gusting 4 1.1
2019-Dec-08 15:45 220 2 gusting 5 0.6
2019-Dec-08 15:16 180 1 gusting 6 -0.0
2019-Dec-08 15:01 179 2 gusting 6 -0.0
2019-Dec-08 14:47 149 2 gusting 6 -0.6
2019-Dec-08 14:31 147 3 gusting 5 -0.6
2019-Dec-08 14:16 171 2 gusting 6 -1.1
2019-Dec-08 14:01 067 -1.7
2019-Dec-08 13:46 044 -2.2
2019-Dec-08 13:31 355 -2.8
2019-Dec-08 13:16 355 -3.3
2019-Dec-08 13:02 345 -3.9
2019-Dec-08 12:45 345 0 gusting 1 -4.4
2019-Dec-08 12:31 345 -5.0
2019-Dec-08 12:16 340 -5.0
2019-Dec-08 12:00 340 -5.0
2019-Dec-08 11:46 340 -5.0
2019-Dec-08 11:30 340 -5.6
2019-Dec-08 11:16 340 -5.6
2019-Dec-08 11:01 340 -5.6
2019-Dec-08 10:45 340 -5.6
2019-Dec-08 10:30 340 -5.0
2019-Dec-08 10:15 340 -5.0
2019-Dec-08 10:02 340 -5.0
2019-Dec-08 09:46 340 -5.0
2019-Dec-08 09:30 340 -5.0
2019-Dec-08 09:15 340 -4.4
2019-Dec-08 09:00 340 -5.0
2019-Dec-08 08:45 340 -4.4
2019-Dec-08 08:31 340 -4.4
2019-Dec-08 08:16 340 -4.4
2019-Dec-08 08:00 340 -4.4
2019-Dec-08 07:46 340 -4.4
2019-Dec-08 07:30 340 -3.9
2019-Dec-08 07:15 340 -3.9
2019-Dec-08 07:00 340 -3.9
2019-Dec-08 06:45 340 -3.3
2019-Dec-08 06:30 340 -3.3
2019-Dec-08 06:15 340 -3.3
2019-Dec-08 06:00 340 -3.3
2019-Dec-08 05:46 340 -2.8
2019-Dec-08 05:31 340 -2.8
2019-Dec-08 05:17 340 -2.8
2019-Dec-08 05:01 340 -2.8
2019-Dec-08 04:47 340 -2.8
2019-Dec-08 04:31 340 -2.2
2019-Dec-08 04:16 340 -2.2
2019-Dec-08 04:02 340 0 gusting 1 -2.2
2019-Dec-08 03:48 340 -1.7
2019-Dec-08 03:31 340 -1.7
2019-Dec-08 03:16 340 -1.7
2019-Dec-08 03:01 341 -1.7
2019-Dec-08 02:46 341 -1.7
2019-Dec-08 02:31 326 0 gusting 3 -1.7
2019-Dec-08 02:16 355 -1.7
2019-Dec-08 02:01 355 -1.1
2019-Dec-08 01:46 355 -1.1
2019-Dec-08 01:31 338 0 gusting 3 -0.6
2019-Dec-08 01:16 342 0 gusting 2 -0.6
2019-Dec-08 01:01 005 0 gusting 2 -0.6
2019-Dec-08 00:46 317 1 gusting 6 -0.6
2019-Dec-08 00:31 344 1 gusting 5 -0.0
2019-Dec-08 00:15 012 0 gusting 4 -0.0
2019-Dec-08 00:01 340 1 gusting 4 -0.0
2019-Dec-07 23:45 286 2 gusting 7 0.6
2019-Dec-07 23:30 355 1 gusting 11 0.6
2019-Dec-07 23:15 321 1 gusting 6 0.6
2019-Dec-07 23:00 011 0 gusting 7 1.1